When you browse on this site, cookies collect data to enhance your experience and personalize the content and advertising you see.
Visit our Privacy Policy to learn more. By continuing to use the site, you agree to this use of cookies and data.
  • In Hungary
  • List of Countries
  • For 7 days
  • Water Temperature
  • Weather Map
  • News
  • Weather Widgets
  • user-avatar
    Login

    Hourly Weather Pushkinskiy

    Today, 14 October, Monday

    Time Temperature Precipitation Wind Pressure Humidity
    00:00 +7°C° 0.1 mm 5 mps 732 mmHg 87%
    01:00 +7°C° 0.1 mm 5 mps 732 mmHg 87%
    02:00 +7°C° 0.1 mm 5 mps 732 mmHg 86%
    03:00 +6°C° 0.1 mm 5 mps 732 mmHg 84%
    04:00 +6°C° 0.1 mm 5 mps 732 mmHg 83%
    05:00 +6°C° 0 mm 5 mps 732 mmHg 84%
    06:00 +6°C° 0 mm 5 mps 732 mmHg 86%
    07:00 +5°C° 0 mm 5 mps 732 mmHg 88%
    08:00 +5°C° 0 mm 6 mps 733 mmHg 84%
    09:00 +5°C° 0 mm 6 mps 733 mmHg 81%
    10:00 +7°C° 0 mm 6 mps 733 mmHg 78%
    11:00 +6°C° 0.1 mm 7 mps 734 mmHg 77%
    12:00 +6°C° 0.1 mm 7 mps 734 mmHg 77%
    13:00 +6°C° 0.1 mm 7 mps 734 mmHg 76%
    14:00 +6°C° 0.1 mm 7 mps 735 mmHg 74%
    15:00 +8°C° 0.1 mm 6 mps 735 mmHg 71%
    16:00 +8°C° 0.1 mm 6 mps 736 mmHg 69%
    17:00 +7°C° 0.1 mm 6 mps 736 mmHg 73%
    18:00 +7°C° 0.1 mm 5 mps 736 mmHg 77%
    19:00 +6°C° 0.1 mm 5 mps 737 mmHg 81%
    20:00 +6°C° 0.1 mm 5 mps 737 mmHg 83%
    21:00 +6°C° 0.1 mm 5 mps 737 mmHg 85%
    22:00 +6°C° 0.1 mm 5 mps 737 mmHg 87%
    23:00 +5°C° 0.1 mm 5 mps 737 mmHg 87%

    Tomorrow, 15 October, Tuesday

    Time Temperature Precipitation Wind Pressure Humidity
    00:00 +5°C° 0.1 mm 5 mps 737 mmHg 87%
    01:00 +5°C° 0.1 mm 5 mps 737 mmHg 88%
    02:00 +5°C° 0 mm 4 mps 737 mmHg 89%
    03:00 +4°C° 0 mm 4 mps 737 mmHg 91%
    04:00 +4°C° 0 mm 4 mps 737 mmHg 92%
    05:00 +4°C° 0.2 mm 4 mps 737 mmHg 92%
    06:00 +4°C° 0.2 mm 4 mps 737 mmHg 91%
    07:00 +5°C° 0.2 mm 5 mps 736 mmHg 90%
    08:00 +5°C° 0.5 mm 5 mps 735 mmHg 91%
    09:00 +5°C° 0.5 mm 5 mps 734 mmHg 91%
    10:00 +4°C° 0.5 mm 6 mps 733 mmHg 92%
    11:00 +5°C° 1.3 mm 6 mps 732 mmHg 92%
    12:00 +6°C° 1.3 mm 7 mps 731 mmHg 92%
    13:00 +8°C° 1.3 mm 7 mps 730 mmHg 93%
    14:00 +8°C° 0.8 mm 7 mps 730 mmHg 92%
    15:00 +9°C° 0.8 mm 6 mps 730 mmHg 91%
    16:00 +10°C° 0.8 mm 6 mps 730 mmHg 90%
    17:00 +9°C° 0.5 mm 6 mps 730 mmHg 91%
    18:00 +8°C° 0.5 mm 5 mps 731 mmHg 91%
    19:00 +8°C° 0.5 mm 4 mps 731 mmHg 91%
    20:00 +7°C° 0 mm 5 mps 732 mmHg 89%
    21:00 +6°C° 0 mm 5 mps 733 mmHg 87%
    22:00 +4°C° 0 mm 6 mps 733 mmHg 85%
    23:00 +5°C° 0 mm 5 mps 734 mmHg 85%

    Day after tomorrow, 16 October, Wednesday

    Time Temperature Precipitation Wind Pressure Humidity
    00:00 +3°C° 0 mm 5 mps 735 mmHg 85%
    01:00 +4°C° 0 mm 4 mps 736 mmHg 85%
    02:00 +4°C° 0.1 mm 4 mps 736 mmHg 85%
    03:00 +3°C° 0.1 mm 4 mps 737 mmHg 84%
    04:00 +2°C° 0.1 mm 5 mps 738 mmHg 83%
    05:00 +2°C° 0 mm 5 mps 738 mmHg 83%
    06:00 +2°C° 0 mm 5 mps 738 mmHg 84%
    07:00 +1°C° 0 mm 5 mps 739 mmHg 84%
    08:00 +2°C° 0.1 mm 5 mps 739 mmHg 80%
    09:00 +2°C° 0.1 mm 6 mps 740 mmHg 77%
    10:00 +2°C° 0.1 mm 6 mps 740 mmHg 73%
    11:00 +2°C° 0 mm 6 mps 741 mmHg 70%
    12:00 +3°C° 0 mm 6 mps 741 mmHg 67%
    13:00 +3°C° 0 mm 5 mps 742 mmHg 63%
    14:00 +3°C° 0 mm 6 mps 742 mmHg 66%
    15:00 +2°C° 0 mm 6 mps 743 mmHg 68%
    16:00 +2°C° 0 mm 6 mps 743 mmHg 70%
    17:00 +1°C° 0 mm 6 mps 744 mmHg 70%
    18:00 +1°C° 0 mm 5 mps 744 mmHg 69%
    19:00 0°C° 0 mm 5 mps 744 mmHg 69%
    20:00 0°C° 0 mm 4 mps 745 mmHg 70%
    21:00 0°C° 0 mm 4 mps 745 mmHg 72%
    22:00 0°C° 0 mm 4 mps 746 mmHg 74%
    23:00 0°C° 0 mm 3 mps 746 mmHg 75%

    17 October, Thursday

    Time Temperature Precipitation Wind Pressure Humidity
    00:00 0°C° 0 mm 3 mps 746 mmHg 76%
    01:00 +1°C° 0 mm 2 mps 746 mmHg 78%
    02:00 +1°C° 0 mm 2 mps 746 mmHg 79%
    03:00 -1°C° 0 mm 2 mps 747 mmHg 80%
    04:00 -1°C° 0 mm 2 mps 747 mmHg 81%
    05:00 +1°C° 0 mm 1 mps 747 mmHg 81%
    06:00 +1°C° 0 mm 1 mps 747 mmHg 81%
    07:00 0°C° 0 mm 0 mps 748 mmHg 81%
    08:00 +2°C° 0 mm 1 mps 748 mmHg 77%
    09:00 +2°C° 0 mm 1 mps 747 mmHg 73%
    10:00 +2°C° 0 mm 2 mps 747 mmHg 69%
    11:00 +3°C° 0 mm 2 mps 747 mmHg 68%
    12:00 +2°C° 0 mm 3 mps 747 mmHg 66%
    13:00 +3°C° 0 mm 3 mps 747 mmHg 64%
    14:00 +3°C° 0 mm 3 mps 746 mmHg 67%
    15:00 +3°C° 0 mm 4 mps 746 mmHg 69%
    16:00 +3°C° 0 mm 4 mps 746 mmHg 71%
    17:00 +3°C° 0 mm 4 mps 745 mmHg 74%
    18:00 +1°C° 0 mm 4 mps 745 mmHg 77%
    19:00 +1°C° 0 mm 4 mps 744 mmHg 80%
    20:00 +1°C° 0 mm 5 mps 743 mmHg 79%
    21:00 +1°C° 0 mm 6 mps 743 mmHg 77%
    22:00 +2°C° 0 mm 7 mps 742 mmHg 76%
    23:00 +1°C° 0 mm 8 mps 741 mmHg 73%

    18 October, Friday

    Time Temperature Precipitation Wind Pressure Humidity
    00:00 +1°C° 0 mm 8 mps 741 mmHg 69%
    01:00 +1°C° 0 mm 8 mps 740 mmHg 66%
    02:00 +2°C° 0 mm 9 mps 739 mmHg 65%
    03:00 +2°C° 0 mm 9 mps 739 mmHg 63%
    04:00 +2°C° 0 mm 9 mps 738 mmHg 62%
    05:00 +2°C° 0.1 mm 9 mps 737 mmHg 63%
    06:00 +1°C° 0.1 mm 9 mps 736 mmHg 65%
    07:00 +1°C° 0.1 mm 9 mps 736 mmHg 66%
    08:00 +1°C° 0.5 mm 9 mps 735 mmHg 70%
    09:00 +1°C° 0.5 mm 9 mps 735 mmHg 74%
    10:00 +1°C° 0.5 mm 8 mps 734 mmHg 78%
    11:00 +2°C° 0.3 mm 8 mps 734 mmHg 80%
    12:00 +3°C° 0.3 mm 7 mps 734 mmHg 83%
    13:00 +4°C° 0.3 mm 7 mps 734 mmHg 86%
    14:00 +3°C° 0.6 mm 7 mps 734 mmHg 81%
    15:00 +2°C° 0.6 mm 7 mps 734 mmHg 77%
    16:00 0°C° 0.6 mm 8 mps 735 mmHg 72%
    17:00 -1°C° 0 mm 7 mps 735 mmHg 72%
    18:00 -1°C° 0 mm 7 mps 736 mmHg 72%
    19:00 -2°C° 0 mm 7 mps 737 mmHg 73%
    20:00 -2°C° 0 mm 7 mps 737 mmHg 75%
    21:00 -3°C° 0 mm 7 mps 737 mmHg 77%
    22:00 -4°C° 0 mm 8 mps 738 mmHg 79%
    23:00 -4°C° 0.1 mm 8 mps 738 mmHg 80%

    19 October, Saturday

    Time Temperature Precipitation Wind Pressure Humidity
    00:00 -5°C° 0.1 mm 8 mps 739 mmHg 80%
    01:00 -5°C° 0.1 mm 8 mps 739 mmHg 81%
    02:00 -5°C° 0.1 mm 8 mps 740 mmHg 80%
    03:00 -6°C° 0.1 mm 8 mps 740 mmHg 80%
    04:00 -6°C° 0.1 mm 8 mps 741 mmHg 79%
    05:00 -6°C° 0 mm 8 mps 741 mmHg 77%
    06:00 -6°C° 0 mm 8 mps 742 mmHg 76%
    07:00 -6°C° 0 mm 7 mps 743 mmHg 74%
    08:00 -6°C° 0 mm 7 mps 743 mmHg 72%
    09:00 -5°C° 0 mm 6 mps 744 mmHg 71%
    10:00 -5°C° 0 mm 6 mps 745 mmHg 69%
    11:00 -4°C° 0 mm 6 mps 745 mmHg 66%
    12:00 -2°C° 0 mm 5 mps 746 mmHg 62%
    13:00 -1°C° 0 mm 5 mps 746 mmHg 59%
    14:00 -1°C° 0 mm 4 mps 746 mmHg 59%
    15:00 -1°C° 0 mm 4 mps 747 mmHg 59%
    16:00 0°C° 0 mm 3 mps 747 mmHg 59%
    17:00 -1°C° 0 mm 3 mps 747 mmHg 63%
    18:00 -2°C° 0 mm 2 mps 747 mmHg 67%
    19:00 -1°C° 0 mm 1 mps 748 mmHg 71%
    20:00 -1°C° 0 mm 1 mps 748 mmHg 71%
    21:00 -1°C° 0 mm 1 mps 748 mmHg 72%
    22:00 -1°C° 0 mm 1 mps 748 mmHg 73%
    23:00 -1°C° 0 mm 1 mps 748 mmHg 74%
    Show more